Content
SEND FEEDBACK

Daily
Averages
Monthly
Summary
Canada

SUDBURY, ONTARIO


Home > North America > Canada > Ontario
Elevation: 1140 feet     Latitude: 46 37N     Longitude: 080 48W

WEATHER
 
SELECT A DAY
Number of Records: 189,041;   Date Range: 1/1/95 - 12/27/14
 
SHARE

PRINT THIS DATA

[ ← Previous Day ]
WEATHER ALMANAC - MAY 19, 2013
[ Next Day → ]
[ °C ]   °F
Weather ElementAverageHighLow
Temperature58.5 °F69.8 °F (4:00 pm)50 °F (8:00 am)
Dewpoint49.6 °F57.2 °F (10:38 pm)35.6 °F (1:00 am)
Humidity72.8 %94 % (11:00 pm)39 % (1:00 am)
Barometer30.06 in30.14 in (2:00 am)29.96 in (7:00 pm)
Wind Speed9.1 mph16.1 mph (10:51 am)
Wind Gust21.9 mph (4:00 pm)
Weather ElementAverage
Visibility16.6 mi
Wind DirectionSSE (170.6 °)

Weather ElementTotal
Precipitation---
Heating Degree Days5.1 (Base 65)
Growing Degree Days9.9 (Base 50)
Averaged from 31 records on May 19, 2013
WEATHER CONDITIONS BREAKOUT
WIND DIRECTION BREAKOUT
WEATHER BY HOUR - MAY 19, 2013
[ °C ]   °F
Local TimeTemperatureDewpointHumidityBarometerVisibilityWind DirectionWind SpeedGust SpeedPrecipitationEventsConditions
1:00 AM60.8 °F35.6 °F39 %30.13 in15.0 miSSE (150°)4.6 mphMostly Cloudy
2:00 AM56.0 °F40.0 °F43 %30.14 in15.0 miSSW (200°)3.5 mphMostly Cloudy
2:00 AM55.4 °F39.2 °F54 %30.14 in15.0 miSSW (210°)3.5 mphMostly Cloudy
3:00 AM55.4 °F42.8 °F63 %30.13 in20.0 miSSW (210°)8.1 mphMostly Cloudy
3:36 AM53.6 °F44.6 °F72 %30.13 in12.0 miSW (230°)4.6 mphRainLight Rain
4:00 AM51.8 °F46.4 °F82 %30.14 in12.0 miSW (230°)2.3 mphRainLight Rain
5:00 AM51.8 °F46.4 °F82 %30.14 in10.0 miSouth (180°)5.8 mphRainLight Rain Showers
6:00 AM51.8 °F48.2 °F88 %30.14 in10.0 miSSE (160°)6.9 mphRainLight Rain Showers
7:00 AM51.8 °F46.4 °F82 %30.14 in12.0 miSSE (150°)15.0 mphRainLight Rain Showers
8:00 AM50.0 °F46.0 °F82 %30.14 in15.0 miSE (130°)10.4 mphRainLight Rain Showers
8:00 AM50.0 °F46.4 °F87 %30.13 in15.0 miESE (120°)10.4 mphRainLight Rain Showers
8:49 AM50.0 °F46.4 °F87 %30.12 in20.0 miSE (130°)9.2 mphOvercast
9:00 AM50.0 °F46.4 °F87 %30.12 in20.0 miSE (130°)9.2 mphOvercast
10:00 AM51.8 °F48.2 °F88 %30.10 in20.0 miSE (140°)13.8 mph20.7 mphOvercast
10:51 AM53.6 °F50.0 °F88 %30.09 in20.0 miSE (140°)16.1 mphOvercast
11:00 AM53.6 °F50.0 °F88 %30.08 in20.0 miSE (140°)11.5 mph19.6 mphMostly Cloudy
12:00 PM57.2 °F51.8 °F82 %30.09 in20.0 miSE (130°)5.8 mphOvercast
1:00 PM59.0 °F53.6 °F82 %30.04 in20.0 miSE (140°)13.8 mphMostly Cloudy
2:00 PM64.0 °F56.0 °F68 %30.01 in19.0 miSouth (190°)13.8 mphPartly Cloudy
2:00 PM64.4 °F55.4 °F73 %30.01 in20.0 miSSE (160°)11.5 mph19.6 mphMostly Cloudy
3:00 PM68.0 °F53.6 °F60 %30.00 in20.0 miSSW (210°)9.2 mphOvercast
4:00 PM69.8 °F53.6 °F56 %29.97 in20.0 miSW (220°)13.8 mph21.9 mphMostly Cloudy
5:00 PM69.8 °F53.6 °F56 %29.97 in20.0 miSW (230°)12.7 mph19.6 mphMostly Cloudy
6:00 PM69.8 °F53.6 °F56 %29.97 in20.0 miSSW (210°)13.8 mphMostly Cloudy
7:00 PM68.0 °F53.6 °F60 %29.96 in15.0 miSSW (200°)8.1 mphOvercast
8:00 PM67.0 °F54.0 °F53 %29.96 in15.0 miSSE (160°)3.5 mphScattered Clouds
8:00 PM66.2 °F53.6 °F64 %29.96 in15.0 miSouth (190°)5.8 mphMostly Cloudy
9:00 PM62.6 °F53.6 °F72 %29.97 in15.0 miSSW (210°)9.2 mphMostly Cloudy
10:00 PM60.8 °F55.4 °F82 %30.01 in15.0 miNorth (350°)5.8 mphMostly Cloudy
10:38 PM60.8 °F57.2 °F88 %30.01 in15.0 miNNE (20°)9.2 mphOvercast
11:00 PM59.0 °F57.2 °F94 %30.02 in15.0 miNNE (20°)10.4 mphOvercast
Hourly data recorded from CYSB, located miles away from Sudbury, Ontario







STORIES FROM OUR PARTNERS